Location: Br�znic
(45.9167°N, 22.6500°E)
Time: 18:37:03
(UTC+00:00)

Cosmos 2219 Rocket - Pass Details

Date: 03 March 2021
Orbit: 826 x 848 km, 71.0° (Epoch: 15 April)

Event Time Altitude Azimuth Distance (km) Brightness Sun altitude
Rises 17:41:14 0° 175° (S) 3,351 5.2 -15.1°
Reaches altitude 10° 17:43:53 10° 165° (SSE) 2,424 4.4 -15.6°
Maximum altitude 17:48:43 32° 105° (ESE) 1,406 2.8 -16.4°
Enters shadow 17:53:28 11° 45° (NE) 2,408 4.2 -17.2°
Exits shadow 17:55:15 - 37° (NE) 3,020 4.8 -17.5°
Sets 17:56:16 0° 35° (NE) 3,390 5.1 -17.7°
